Погода в Озере-Карачи

Россия / Новосибирская область     55°20′09″N   76°56′28″E
темп.,
°C
ветер,
м/с
пор.,
м/с
влажн.,
%
обл.,
%
осадки,
мм/ч
давл.,
гПа
погр.,
м
18 мая, вт
вт1801:00+20зюз410425 0.0 1008149
04:00+18з46563 0.0 100772
07:00+17сз512664 0.0 1008336
10:00+21сз585423 0.0 1007744
13:00+25сз69415 0.0 10071816
16:00+26зсз9123222 0.0 10073023
19:00+23зсз71042100 0.0 10052239
22:00+16ссв6108330 1.2 1007531
19 мая, ср
ср1901:00+13ссв698293 1.2 1009653
04:00+10ссв7118689 0.0 1010638
07:00+10ссв61181100 0.0 1012710
10:00+11ссв7965100 0.0 1013678
13:00+15ссв78375 0.0 10141928
16:00+16с78315 0.0 10152286
19:00+14с792994 0.0 10162434
22:00+9ссв34423 0.0 101762
20 мая, чт
чт2001:00+7сз224899 0.0 101813
04:00+6с496339 0.0 1018293
07:00+4ссв49845 0.0 1019523
10:00+8ссв683821 0.0 10211581
13:00+10с6730100 0.0 10211712
16:00+11с6728100 0.0 10211823
19:00+11ссз453086 0.0 10211786
22:00+7св224111 0.0 102210
21 мая, пт
пт2101:00+6юв224299 0.0 102218
04:00+6ююв3546100 0.0 102294
07:00+6ююв3653100 0.0 1023217
10:00+10ю574588 0.0 1023919
13:00+13ю563746 0.0 10231341
16:00+14ююз44415 0.0 10231279
19:00+14зюз225190 0.0 10221024
22:00+10зюз227081 0.0 102317
22 мая, сб
сб2201:00+10зюз3372100 0.0 102340
04:00+9юз457631 0.0 102291
07:00+9зюз497542 0.0 1022240
10:00+16з695674 0.0 1020635
13:00+22зсз81046100 0.0 10181082
16:00+26сз584153 0.0 10171906
19:00+26зсз464380 0.0 10171267
22:00+17ссв71192100 5.7 1019389